When you browse on this site, cookies collect data to enhance your experience and personalize the content and advertising you see.
Visit our Privacy Policy to learn more. By continuing to use the site, you agree to this use of cookies and data.
  • în România
  • Lista ţărilor
  • Pe 7 zile
  • Temperatura apei
  • Meteo pe hartă
  • Widget-uri
  • user-avatar
    Intrare

    Meteo pe oră la Hajfong

    Astăzi, 6 Decembrie, Vineri

    Timp Temperatura Precipitaţii Vânt Presiune Umiditate
    00:00 +15°C° 0 mm 4 m/s 769 mmHg 50%
    01:00 +14°C° 0 mm 4 m/s 769 mmHg 52%
    02:00 +14°C° 0 mm 4 m/s 769 mmHg 53%
    03:00 +13°C° 0 mm 4 m/s 769 mmHg 54%
    04:00 +13°C° 0 mm 4 m/s 769 mmHg 55%
    05:00 +13°C° 0 mm 4 m/s 770 mmHg 55%
    06:00 +13°C° 0 mm 4 m/s 770 mmHg 56%
    07:00 +13°C° 0 mm 4 m/s 771 mmHg 58%
    08:00 +15°C° 0 mm 4 m/s 771 mmHg 50%
    09:00 +17°C° 0 mm 4 m/s 771 mmHg 43%
    10:00 +19°C° 0 mm 5 m/s 771 mmHg 36%
    11:00 +20°C° 0 mm 5 m/s 770 mmHg 32%
    12:00 +21°C° 0 mm 5 m/s 770 mmHg 29%
    13:00 +22°C° 0 mm 5 m/s 769 mmHg 26%
    14:00 +22°C° 0 mm 5 m/s 769 mmHg 27%
    15:00 +22°C° 0 mm 4 m/s 768 mmHg 28%
    16:00 +22°C° 0 mm 4 m/s 768 mmHg 29%
    17:00 +20°C° 0 mm 4 m/s 768 mmHg 32%
    18:00 +19°C° 0 mm 4 m/s 769 mmHg 36%
    19:00 +17°C° 0 mm 3 m/s 769 mmHg 39%
    20:00 +17°C° 0 mm 3 m/s 769 mmHg 39%
    21:00 +16°C° 0 mm 3 m/s 769 mmHg 39%
    22:00 +16°C° 0 mm 3 m/s 770 mmHg 40%
    23:00 +14°C° 0 mm 3 m/s 769 mmHg 42%

    Mâine, 7 Decembrie, Sâmbătă

    Timp Temperatura Precipitaţii Vânt Presiune Umiditate
    00:00 +14°C° 0 mm 3 m/s 769 mmHg 44%
    01:00 +13°C° 0 mm 3 m/s 768 mmHg 46%
    02:00 +13°C° 0 mm 3 m/s 768 mmHg 48%
    03:00 +13°C° 0 mm 2 m/s 769 mmHg 50%
    04:00 +13°C° 0 mm 2 m/s 769 mmHg 52%
    05:00 +13°C° 0 mm 2 m/s 769 mmHg 53%
    06:00 +13°C° 0 mm 2 m/s 769 mmHg 54%
    07:00 +12°C° 0 mm 2 m/s 770 mmHg 56%
    08:00 +15°C° 0 mm 2 m/s 770 mmHg 47%
    09:00 +17°C° 0 mm 2 m/s 770 mmHg 39%
    10:00 +20°C° 0 mm 2 m/s 770 mmHg 30%
    11:00 +21°C° 0 mm 2 m/s 770 mmHg 27%
    12:00 +23°C° 0 mm 2 m/s 769 mmHg 25%
    13:00 +23°C° 0 mm 2 m/s 768 mmHg 22%
    14:00 +23°C° 0 mm 2 m/s 768 mmHg 23%
    15:00 +22°C° 0 mm 3 m/s 767 mmHg 25%
    16:00 +22°C° 0 mm 3 m/s 767 mmHg 27%
    17:00 +20°C° 0 mm 3 m/s 767 mmHg 31%
    18:00 +19°C° 0 mm 2 m/s 768 mmHg 35%
    19:00 +17°C° 0 mm 2 m/s 768 mmHg 39%
    20:00 +17°C° 0 mm 2 m/s 768 mmHg 40%
    21:00 +16°C° 0 mm 2 m/s 769 mmHg 40%
    22:00 +16°C° 0 mm 2 m/s 769 mmHg 41%
    23:00 +15°C° 0 mm 2 m/s 769 mmHg 41%

    Poimâine, 8 Decembrie, Duminică

    Timp Temperatura Precipitaţii Vânt Presiune Umiditate
    00:00 +15°C° 0 mm 2 m/s 768 mmHg 41%
    01:00 +14°C° 0 mm 1 m/s 768 mmHg 41%
    02:00 +14°C° 0 mm 1 m/s 768 mmHg 41%
    03:00 +13°C° 0 mm 1 m/s 768 mmHg 42%
    04:00 +13°C° 0 mm 1 m/s 768 mmHg 42%
    05:00 +13°C° 0 mm 1 m/s 768 mmHg 42%
    06:00 +13°C° 0 mm 1 m/s 768 mmHg 43%
    07:00 +13°C° 0 mm 2 m/s 769 mmHg 44%
    08:00 +15°C° 0 mm 1 m/s 769 mmHg 38%
    09:00 +19°C° 0 mm 1 m/s 769 mmHg 33%
    10:00 +21°C° 0 mm 1 m/s 769 mmHg 28%
    11:00 +22°C° 0 mm 1 m/s 769 mmHg 26%
    12:00 +23°C° 0 mm 1 m/s 768 mmHg 24%
    13:00 +24°C° 0 mm 1 m/s 767 mmHg 22%
    14:00 +23°C° 0 mm 2 m/s 766 mmHg 24%
    15:00 +23°C° 0 mm 2 m/s 766 mmHg 26%
    16:00 +21°C° 0 mm 3 m/s 765 mmHg 28%
    17:00 +20°C° 0 mm 2 m/s 766 mmHg 34%
    18:00 +18°C° 0 mm 2 m/s 766 mmHg 39%
    19:00 +17°C° 0 mm 2 m/s 766 mmHg 45%
    20:00 +16°C° 0 mm 2 m/s 766 mmHg 46%
    21:00 +16°C° 0 mm 2 m/s 767 mmHg 47%
    22:00 +16°C° 0 mm 1 m/s 767 mmHg 47%
    23:00 +15°C° 0 mm 1 m/s 767 mmHg 48%

    9 Decembrie, Luni

    Timp Temperatura Precipitaţii Vânt Presiune Umiditate
    00:00 +15°C° 0 mm 1 m/s 767 mmHg 48%
    01:00 +15°C° 0 mm 2 m/s 766 mmHg 48%
    02:00 +14°C° 0 mm 2 m/s 766 mmHg 48%
    03:00 +14°C° 0 mm 2 m/s 766 mmHg 48%
    04:00 +13°C° 0 mm 2 m/s 766 mmHg 48%
    05:00 +13°C° 0 mm 2 m/s 766 mmHg 48%
    06:00 +13°C° 0 mm 2 m/s 767 mmHg 47%
    07:00 +13°C° 0 mm 2 m/s 767 mmHg 47%
    08:00 +16°C° 0 mm 2 m/s 767 mmHg 41%
    09:00 +18°C° 0 mm 2 m/s 767 mmHg 35%
    10:00 +20°C° 0 mm 2 m/s 767 mmHg 29%
    11:00 +21°C° 0 mm 2 m/s 766 mmHg 27%
    12:00 +23°C° 0 mm 2 m/s 765 mmHg 26%
    13:00 +24°C° 0 mm 2 m/s 765 mmHg 24%
    14:00 +24°C° 0 mm 2 m/s 764 mmHg 26%
    15:00 +23°C° 0 mm 2 m/s 763 mmHg 29%
    16:00 +21°C° 0 mm 3 m/s 763 mmHg 31%
    17:00 +20°C° 0 mm 2 m/s 763 mmHg 36%
    18:00 +19°C° 0 mm 2 m/s 763 mmHg 42%
    19:00 +17°C° 0 mm 2 m/s 764 mmHg 47%
    20:00 +17°C° 0 mm 2 m/s 764 mmHg 47%
    21:00 +16°C° 0 mm 1 m/s 764 mmHg 48%
    22:00 +16°C° 0 mm 1 m/s 764 mmHg 49%
    23:00 +16°C° 0 mm 1 m/s 764 mmHg 49%

    10 Decembrie, Marţi

    Timp Temperatura Precipitaţii Vânt Presiune Umiditate
    00:00 +15°C° 0 mm 1 m/s 764 mmHg 50%
    01:00 +15°C° 0 mm 1 m/s 763 mmHg 51%
    02:00 +15°C° 0 mm 1 m/s 763 mmHg 51%
    03:00 +14°C° 0 mm 1 m/s 763 mmHg 52%
    04:00 +14°C° 0 mm 1 m/s 763 mmHg 52%
    05:00 +14°C° 0 mm 1 m/s 763 mmHg 52%
    06:00 +14°C° 0 mm 1 m/s 763 mmHg 53%
    07:00 +14°C° 0 mm 1 m/s 764 mmHg 53%
    08:00 +17°C° 0 mm 2 m/s 764 mmHg 46%
    09:00 +19°C° 0 mm 2 m/s 764 mmHg 39%
    10:00 +21°C° 0 mm 2 m/s 764 mmHg 32%
    11:00 +23°C° 0 mm 2 m/s 763 mmHg 30%
    12:00 +24°C° 0 mm 2 m/s 763 mmHg 27%
    13:00 +25°C° 0 mm 2 m/s 762 mmHg 25%
    14:00 +24°C° 0 mm 2 m/s 762 mmHg 28%
    15:00 +24°C° 0 mm 2 m/s 762 mmHg 31%
    16:00 +22°C° 0 mm 3 m/s 761 mmHg 34%
    17:00 +20°C° 0 mm 3 m/s 762 mmHg 39%
    18:00 +19°C° 0 mm 2 m/s 762 mmHg 44%
    19:00 +18°C° 0 mm 2 m/s 762 mmHg 49%
    20:00 +17°C° 0 mm 2 m/s 763 mmHg 50%
    21:00 +18°C° 0 mm 1 m/s 763 mmHg 50%
    22:00 +18°C° 0 mm 1 m/s 763 mmHg 50%
    23:00 +16°C° 0 mm 1 m/s 763 mmHg 50%

    11 Decembrie, Miercuri

    Timp Temperatura Precipitaţii Vânt Presiune Umiditate
    00:00 +16°C° 0 mm 1 m/s 763 mmHg 49%
    01:00 +16°C° 0 mm 2 m/s 763 mmHg 49%
    02:00 +15°C° 0 mm 2 m/s 763 mmHg 50%
    03:00 +15°C° 0 mm 2 m/s 763 mmHg 51%
    04:00 +15°C° 0 mm 2 m/s 763 mmHg 51%
    05:00 +15°C° 0 mm 2 m/s 763 mmHg 52%
    06:00 +15°C° 0 mm 2 m/s 764 mmHg 52%
    07:00 +15°C° 0 mm 1 m/s 764 mmHg 53%
    08:00 +17°C° 0 mm 2 m/s 764 mmHg 46%
    09:00 +20°C° 0 mm 2 m/s 764 mmHg 38%
    10:00 +23°C° 0 mm 2 m/s 764 mmHg 31%
    11:00 +24°C° 0 mm 1 m/s 764 mmHg 29%
    12:00 +25°C° 0 mm 1 m/s 763 mmHg 26%
    13:00 +26°C° 0 mm 1 m/s 762 mmHg 24%
    14:00 +25°C° 0 mm 2 m/s 762 mmHg 27%
    15:00 +25°C° 0 mm 2 m/s 762 mmHg 29%
    16:00 +24°C° 0 mm 3 m/s 762 mmHg 31%
    17:00 +23°C° 0 mm 2 m/s 762 mmHg 37%
    18:00 +20°C° 0 mm 2 m/s 762 mmHg 42%
    19:00 +19°C° 0 mm 2 m/s 762 mmHg 47%
    20:00 +18°C° 0 mm 2 m/s 763 mmHg 48%
    21:00 +19°C° 0 mm 1 m/s 763 mmHg 48%
    22:00 +19°C° 0 mm 1 m/s 763 mmHg 49%
    23:00 +18°C° 0 mm 1 m/s 763 mmHg 49%
    Arată mai mult